DLH2439 EKCH-EDDM

Flight info

Callsign DLH2439
Flight time 1h 14m
Altitude 37000
Route SALLO1C SALLO M44 KOGIM DCT MAREM/N0439F340 DCT VESUB T106 TUSTO T108 LANDU LANDU2A
Aircraft A320/M-SDE3FGHIRWY/LB1

Departure

Time 2026-05-04 17:39
Airport Copenhagen Kastrup Airport (EKCH)

Arrival

Time 2026-05-04 18:53
Airport Munich Airport (EDDM)
Time Latitude Longitude Altitude Speed Heading
2026-05-04 17:02 55.62608 12.64901 24 ft 0 kts 92°
2026-05-04 17:30 55.62626 12.64796 24 ft 4 kts 141°
2026-05-04 17:31 55.62646 12.64782 27 ft 0 kts 191°
2026-05-04 17:33 55.62631 12.64777 27 ft 7 kts 190°
2026-05-04 17:33 55.62562 12.64770 24 ft 12 kts 179°
2026-05-04 17:34 55.62316 12.64663 24 ft 14 kts 246°
2026-05-04 17:34 55.62298 12.64590 24 ft 1 kts 246°
2026-05-04 17:35 55.62297 12.64588 24 ft 0 kts 246°
2026-05-04 17:35 55.62284 12.64537 23 ft 7 kts 246°
2026-05-04 17:35 55.62252 12.64414 24 ft 14 kts 240°
2026-05-04 17:36 55.62163 12.64313 25 ft 16 kts 205°
2026-05-04 17:36 55.62067 12.64232 26 ft 16 kts 205°
2026-05-04 17:36 55.61970 12.64153 24 ft 16 kts 205°
2026-05-04 17:36 55.61878 12.64076 24 ft 13 kts 198°
2026-05-04 17:37 55.61789 12.64078 24 ft 13 kts 175°
2026-05-04 17:37 55.61759 12.64082 24 ft 0 kts 177°
2026-05-04 17:37 55.61746 12.64083 26 ft 6 kts 176°
2026-05-04 17:37 55.61665 12.64092 27 ft 12 kts 175°
2026-05-04 17:38 55.61588 12.64012 26 ft 15 kts 220°
2026-05-04 17:38 55.61418 12.63748 28 ft 68 kts 223°
2026-05-04 17:38 55.60877 12.62912 26 ft 135 kts 221°
2026-05-04 17:38 55.60045 12.61626 100 ft 172 kts 224°
2026-05-04 17:39 55.58184 12.58834 1235 ft 188 kts 222°
2026-05-04 17:39 55.57130 12.57325 1737 ft 202 kts 219°
2026-05-04 17:39 55.55886 12.55991 2220 ft 220 kts 205°
2026-05-04 17:40 55.54295 12.55432 2669 ft 247 kts 187°
2026-05-04 17:40 55.52520 12.55221 3198 ft 262 kts 186°
2026-05-04 17:40 55.50680 12.55035 3703 ft 266 kts 186°
2026-05-04 17:40 55.48816 12.54984 4317 ft 272 kts 175°
2026-05-04 17:41 55.47033 12.56172 5231 ft 281 kts 147°
2026-05-04 17:41 55.45516 12.58391 6146 ft 285 kts 142°
2026-05-04 17:41 55.44031 12.60671 6995 ft 289 kts 142°
2026-05-04 17:41 55.42506 12.63009 7843 ft 293 kts 142°
2026-05-04 17:42 55.41027 12.65516 8658 ft 300 kts 129°
2026-05-04 17:42 55.40101 12.68847 9456 ft 309 kts 108°
2026-05-04 17:42 55.39515 12.72520 10169 ft 318 kts 106°
2026-05-04 17:42 55.38938 12.76431 10412 ft 342 kts 107°
2026-05-04 17:43 55.37955 12.80319 10784 ft 354 kts 128°
2026-05-04 17:43 55.36878 12.82474 11201 ft 354 kts 142°
2026-05-04 17:43 55.34917 12.85099 11927 ft 356 kts 148°
2026-05-04 17:43 55.32893 12.87659 12688 ft 360 kts 149°
2026-05-04 17:44 55.30841 12.90215 13426 ft 364 kts 149°
2026-05-04 17:44 55.28083 12.93629 14326 ft 369 kts 149°
2026-05-04 17:44 55.25974 12.96240 14970 ft 373 kts 149°
2026-05-04 17:44 55.24567 12.97986 15406 ft 375 kts 149°
2026-05-04 17:45 55.22429 13.00639 16055 ft 378 kts 149°
2026-05-04 17:45 55.20274 13.03320 16686 ft 382 kts 149°
2026-05-04 17:45 55.18098 13.06032 17323 ft 386 kts 149°
2026-05-04 17:45 55.15905 13.08763 17947 ft 389 kts 150°
2026-05-04 17:46 55.13541 13.10985 18516 ft 384 kts 166°
2026-05-04 17:46 55.10955 13.11902 19050 ft 377 kts 181°
2026-05-04 17:46 55.08334 13.12247 19606 ft 380 kts 181°
2026-05-04 17:46 55.05682 13.12577 20168 ft 382 kts 181°
2026-05-04 17:47 55.03023 13.12903 20739 ft 385 kts 181°
2026-05-04 17:47 55.00374 13.13231 21301 ft 388 kts 181°
2026-05-04 17:47 54.97636 13.13569 21871 ft 391 kts 182°
2026-05-04 17:47 54.94956 13.13900 22420 ft 394 kts 182°
2026-05-04 17:48 54.92208 13.14246 22969 ft 397 kts 182°
2026-05-04 17:48 54.89451 13.14599 23504 ft 399 kts 182°
2026-05-04 17:48 54.86669 13.14958 23932 ft 402 kts 182°
2026-05-04 17:48 54.83875 13.15320 24411 ft 403 kts 183°
2026-05-04 17:49 54.81072 13.15681 24866 ft 405 kts 183°
2026-05-04 17:49 54.78255 13.16041 25242 ft 407 kts 184°
2026-05-04 17:49 54.75458 13.16399 25638 ft 409 kts 184°
2026-05-04 17:49 54.72610 13.16763 26060 ft 411 kts 184°
2026-05-04 17:50 54.69748 13.17126 26471 ft 413 kts 184°
2026-05-04 17:50 54.66880 13.17487 26864 ft 415 kts 185°
2026-05-04 17:50 54.63992 13.17848 27257 ft 417 kts 185°
2026-05-04 17:50 54.61090 13.18209 27645 ft 419 kts 185°
2026-05-04 17:51 54.58175 13.18574 28042 ft 421 kts 185°
2026-05-04 17:51 54.55247 13.18940 28401 ft 423 kts 185°
2026-05-04 17:51 54.52304 13.19307 28706 ft 425 kts 185°
2026-05-04 17:51 54.49344 13.19677 29044 ft 428 kts 185°
2026-05-04 17:52 54.46409 13.20046 29374 ft 430 kts 185°
2026-05-04 17:52 54.43421 13.20422 29702 ft 431 kts 185°
2026-05-04 17:52 54.40420 13.20797 30035 ft 433 kts 185°
2026-05-04 17:52 54.37408 13.21166 30298 ft 435 kts 185°
2026-05-04 17:53 54.34384 13.21535 30552 ft 437 kts 185°
2026-05-04 17:53 54.31353 13.21910 30798 ft 438 kts 184°
2026-05-04 17:53 54.28305 13.22291 31036 ft 440 kts 184°
2026-05-04 17:53 54.25252 13.22672 31336 ft 439 kts 184°
2026-05-04 17:54 54.22210 13.23051 31692 ft 438 kts 184°
2026-05-04 17:54 54.19176 13.23426 32027 ft 437 kts 184°
2026-05-04 17:54 54.16187 13.23793 32355 ft 436 kts 183°
2026-05-04 17:54 54.13162 13.24162 32684 ft 435 kts 183°
2026-05-04 17:55 54.10142 13.24529 33013 ft 435 kts 183°
2026-05-04 17:55 54.07132 13.24896 33329 ft 434 kts 183°
2026-05-04 17:55 54.04120 13.25261 33662 ft 434 kts 183°
2026-05-04 17:55 54.01112 13.25628 33931 ft 434 kts 183°
2026-05-04 17:56 53.98095 13.25998 34114 ft 436 kts 183°
2026-05-04 17:56 53.95066 13.26365 34328 ft 437 kts 183°
2026-05-04 17:56 53.92032 13.26729 34566 ft 437 kts 183°
2026-05-04 17:56 53.88995 13.27096 34827 ft 438 kts 182°
2026-05-04 17:57 53.85994 13.27466 35063 ft 438 kts 182°
2026-05-04 17:57 53.82921 13.27847 35305 ft 438 kts 182°
2026-05-04 17:57 53.79921 13.28216 35550 ft 438 kts 182°
2026-05-04 17:57 53.76880 13.28585 35777 ft 438 kts 182°
2026-05-04 17:58 53.73840 13.28947 35974 ft 438 kts 182°
2026-05-04 17:58 53.70797 13.29306 36183 ft 439 kts 182°
2026-05-04 17:58 53.67752 13.29665 36394 ft 439 kts 182°
2026-05-04 17:58 53.64712 13.30026 36605 ft 439 kts 181°
2026-05-04 17:59 53.61680 13.30383 36809 ft 439 kts 181°
2026-05-04 17:59 53.58613 13.30746 36948 ft 439 kts 181°
2026-05-04 18:00 53.49536 13.31837 36947 ft 437 kts 181°
2026-05-04 18:00 53.43479 13.32567 36969 ft 436 kts 181°
2026-05-04 18:01 53.37438 13.33280 36967 ft 436 kts 181°
2026-05-04 18:01 53.31387 13.33994 36964 ft 436 kts 181°
2026-05-04 18:02 53.22357 13.35048 36959 ft 436 kts 181°
2026-05-04 18:02 53.16315 13.35767 36970 ft 435 kts 181°
2026-05-04 18:03 53.10265 13.36477 36946 ft 435 kts 181°
2026-05-04 18:03 53.04220 13.37174 36953 ft 436 kts 181°
2026-05-04 18:04 52.98211 13.37870 36944 ft 436 kts 181°
2026-05-04 18:05 52.89141 13.38925 36963 ft 435 kts 181°
2026-05-04 18:05 52.83098 13.39622 36971 ft 435 kts 181°
2026-05-04 18:06 52.74041 13.40667 36963 ft 435 kts 181°
2026-05-04 18:06 52.68040 13.41352 36962 ft 435 kts 181°
2026-05-04 18:07 52.61998 13.42039 36963 ft 435 kts 181°
2026-05-04 18:07 52.55964 13.42736 36960 ft 435 kts 181°
2026-05-04 18:08 52.49925 13.43425 36959 ft 435 kts 181°
2026-05-04 18:08 52.43931 13.44105 36949 ft 434 kts 181°
2026-05-04 18:09 52.31881 13.45455 36960 ft 434 kts 181°
2026-05-04 18:10 52.25863 13.46137 36946 ft 433 kts 181°
2026-05-04 18:10 52.19858 13.46811 36946 ft 433 kts 181°
2026-05-04 18:11 52.13894 13.47481 36959 ft 432 kts 181°
2026-05-04 18:11 52.07897 13.48154 36963 ft 432 kts 181°
2026-05-04 18:12 52.01905 13.48812 36964 ft 431 kts 181°
2026-05-04 18:12 51.95917 13.49470 36953 ft 431 kts 181°
2026-05-04 18:13 51.89973 13.50121 36957 ft 431 kts 181°
2026-05-04 18:14 51.81012 13.51114 36961 ft 430 kts 181°
2026-05-04 18:14 51.75037 13.51783 36961 ft 430 kts 181°
2026-05-04 18:15 51.63080 13.53089 36956 ft 431 kts 181°
2026-05-04 18:16 51.57142 13.53734 36961 ft 431 kts 181°
2026-05-04 18:16 51.51162 13.54388 36965 ft 431 kts 181°
2026-05-04 18:17 51.42205 13.55366 36949 ft 430 kts 180°
2026-05-04 18:18 51.33232 13.56323 36954 ft 431 kts 180°
2026-05-04 18:18 51.27279 13.56955 36962 ft 432 kts 180°
2026-05-04 18:19 51.18283 13.57926 36958 ft 432 kts 180°
2026-05-04 18:19 51.12280 13.58571 36967 ft 432 kts 180°
2026-05-04 18:20 51.06314 13.59207 36974 ft 433 kts 180°
2026-05-04 18:20 51.00301 13.59847 36961 ft 433 kts 180°
2026-05-04 18:21 50.94298 13.60491 36980 ft 432 kts 180°
2026-05-04 18:21 50.88296 13.61131 36985 ft 432 kts 180°
2026-05-04 18:22 50.82343 13.61760 36991 ft 431 kts 180°
2026-05-04 18:22 50.76359 13.62384 36977 ft 431 kts 180°
2026-05-04 18:23 50.70430 13.62102 36977 ft 423 kts 194°
2026-05-04 18:23 50.64823 13.59517 36979 ft 419 kts 201°
2026-05-04 18:24 50.59295 13.56756 36973 ft 420 kts 200°
2026-05-04 18:24 50.53725 13.53997 36963 ft 420 kts 200°
2026-05-04 18:25 50.48146 13.51236 36970 ft 420 kts 200°
2026-05-04 18:25 50.42591 13.48480 36974 ft 420 kts 200°
2026-05-04 18:26 50.37011 13.45713 36978 ft 420 kts 200°
2026-05-04 18:26 50.31474 13.42978 36979 ft 420 kts 200°
2026-05-04 18:27 50.25895 13.40242 36972 ft 420 kts 200°
2026-05-04 18:27 50.20318 13.37516 36973 ft 420 kts 200°
2026-05-04 18:28 50.14741 13.34780 36975 ft 420 kts 200°
2026-05-04 18:28 50.09170 13.32047 36960 ft 420 kts 200°
2026-05-04 18:29 50.03634 13.29353 36922 ft 423 kts 200°
2026-05-04 18:29 50.00783 13.27966 36356 ft 433 kts 200°
2026-05-04 18:29 49.97903 13.26569 35761 ft 432 kts 200°
2026-05-04 18:30 49.92200 13.23810 34615 ft 427 kts 200°
2026-05-04 18:30 49.89370 13.22443 34050 ft 425 kts 200°
2026-05-04 18:30 49.86578 13.21101 33435 ft 423 kts 200°
2026-05-04 18:31 49.83750 13.19740 32791 ft 421 kts 200°
2026-05-04 18:31 49.80959 13.18397 32174 ft 419 kts 200°
2026-05-04 18:31 49.78182 13.17060 31585 ft 418 kts 200°
2026-05-04 18:31 49.75449 13.15743 31010 ft 416 kts 200°
2026-05-04 18:32 49.72691 13.14416 30440 ft 414 kts 199°
2026-05-04 18:32 49.69945 13.13095 29858 ft 412 kts 199°
2026-05-04 18:32 49.67209 13.11783 29206 ft 411 kts 199°
2026-05-04 18:32 49.64483 13.10476 28572 ft 409 kts 199°
2026-05-04 18:33 49.61772 13.09182 27954 ft 408 kts 199°
2026-05-04 18:33 49.59065 13.07892 27347 ft 406 kts 199°
2026-05-04 18:33 49.56370 13.06605 26751 ft 405 kts 199°
2026-05-04 18:33 49.53643 13.05306 26167 ft 418 kts 199°
2026-05-04 18:34 49.50846 13.03977 25733 ft 422 kts 199°
2026-05-04 18:34 49.48036 13.02647 25416 ft 422 kts 199°
2026-05-04 18:34 49.45229 13.01320 25092 ft 421 kts 199°
2026-05-04 18:34 49.42478 13.00003 24749 ft 419 kts 201°
2026-05-04 18:35 49.39822 12.98235 24183 ft 414 kts 207°
2026-05-04 18:35 49.37227 12.96329 23624 ft 411 kts 207°
2026-05-04 18:35 49.34658 12.94447 22995 ft 408 kts 207°
2026-05-04 18:35 49.32100 12.92581 22355 ft 406 kts 207°
2026-05-04 18:36 49.29557 12.90733 21723 ft 403 kts 207°
2026-05-04 18:36 49.27031 12.88899 21106 ft 400 kts 207°
2026-05-04 18:36 49.24521 12.87078 20496 ft 398 kts 207°
2026-05-04 18:36 49.22032 12.85273 19905 ft 396 kts 207°
2026-05-04 18:37 49.19549 12.83471 19319 ft 393 kts 207°
2026-05-04 18:37 49.17089 12.81684 18755 ft 391 kts 207°
2026-05-04 18:37 49.14634 12.79905 18183 ft 389 kts 207°
2026-05-04 18:37 49.12200 12.78146 17532 ft 381 kts 207°
2026-05-04 18:38 49.09849 12.76454 16896 ft 367 kts 206°
2026-05-04 18:38 49.07588 12.74827 16290 ft 361 kts 206°
2026-05-04 18:38 49.05336 12.73206 15686 ft 356 kts 206°
2026-05-04 18:38 49.03109 12.71604 15087 ft 352 kts 206°
2026-05-04 18:39 49.00907 12.70015 14513 ft 348 kts 205°
2026-05-04 18:39 48.98712 12.68434 13935 ft 349 kts 205°
2026-05-04 18:39 48.96516 12.66855 13328 ft 349 kts 205°
2026-05-04 18:39 48.94321 12.65284 12685 ft 348 kts 205°
2026-05-04 18:40 48.92130 12.63720 12075 ft 347 kts 205°
2026-05-04 18:40 48.89955 12.62164 11466 ft 343 kts 205°
2026-05-04 18:40 48.87838 12.60654 10862 ft 328 kts 205°
2026-05-04 18:40 48.85839 12.59232 10305 ft 315 kts 205°
2026-05-04 18:41 48.83934 12.57877 10069 ft 293 kts 205°
2026-05-04 18:41 48.82132 12.56600 9752 ft 281 kts 205°
2026-05-04 18:41 48.80373 12.55354 9408 ft 278 kts 205°
2026-05-04 18:41 48.78619 12.54108 9073 ft 278 kts 205°
2026-05-04 18:42 48.76879 12.52854 8732 ft 275 kts 206°
2026-05-04 18:42 48.75167 12.51612 8478 ft 269 kts 206°
2026-05-04 18:42 48.73511 12.50409 8300 ft 259 kts 206°
2026-05-04 18:42 48.71907 12.49242 8124 ft 254 kts 206°
2026-05-04 18:43 48.70318 12.48083 7978 ft 253 kts 206°
2026-05-04 18:43 48.68754 12.46940 7862 ft 253 kts 206°
2026-05-04 18:43 48.67169 12.45783 7730 ft 253 kts 206°
2026-05-04 18:43 48.65584 12.44625 7610 ft 253 kts 206°
2026-05-04 18:44 48.63939 12.43423 7489 ft 270 kts 206°
2026-05-04 18:44 48.62809 12.42597 7405 ft 273 kts 206°
2026-05-04 18:44 48.60517 12.40916 7210 ft 274 kts 206°
2026-05-04 18:44 48.58804 12.39656 7062 ft 274 kts 206°
2026-05-04 18:45 48.57092 12.38396 6919 ft 274 kts 206°
2026-05-04 18:45 48.55380 12.37135 6787 ft 274 kts 205°
2026-05-04 18:45 48.53672 12.35872 6636 ft 274 kts 205°
2026-05-04 18:45 48.51964 12.34607 6494 ft 273 kts 205°
2026-05-04 18:46 48.50279 12.33357 6351 ft 274 kts 206°
2026-05-04 18:46 48.48572 12.32091 6202 ft 273 kts 206°
2026-05-04 18:46 48.46871 12.30821 6047 ft 274 kts 208°
2026-05-04 18:46 48.45351 12.29122 5891 ft 273 kts 228°
2026-05-04 18:47 48.44222 12.26887 5741 ft 263 kts 234°
2026-05-04 18:47 48.43200 12.24668 5591 ft 254 kts 234°
2026-05-04 18:47 48.42201 12.22480 5443 ft 253 kts 234°
2026-05-04 18:47 48.41206 12.20298 5295 ft 253 kts 234°
2026-05-04 18:48 48.40210 12.18116 5158 ft 253 kts 235°
2026-05-04 18:48 48.39318 12.15879 5042 ft 253 kts 250°
2026-05-04 18:48 48.38998 12.13291 5006 ft 252 kts 263°
2026-05-04 18:48 48.38821 12.10731 4995 ft 239 kts 263°
2026-05-04 18:49 48.38649 12.08289 4811 ft 232 kts 263°
2026-05-04 18:49 48.38472 12.05889 4523 ft 230 kts 263°
2026-05-04 18:49 48.38294 12.03501 4227 ft 229 kts 263°
2026-05-04 18:49 48.38122 12.01177 3930 ft 216 kts 263°
2026-05-04 18:50 48.37962 11.99035 3705 ft 198 kts 263°
2026-05-04 18:50 48.37811 11.97016 3424 ft 191 kts 264°
2026-05-04 18:50 48.37664 11.95056 3165 ft 187 kts 264°
2026-05-04 18:50 48.37518 11.93116 2928 ft 186 kts 264°
2026-05-04 18:51 48.37382 11.91299 2706 ft 169 kts 264°
2026-05-04 18:51 48.37254 11.89603 2483 ft 158 kts 264°
2026-05-04 18:51 48.37133 11.88001 2271 ft 152 kts 264°
2026-05-04 18:51 48.37016 11.86445 2069 ft 148 kts 265°
2026-05-04 18:52 48.36902 11.84920 1860 ft 146 kts 264°
2026-05-04 18:52 48.36783 11.83413 1689 ft 145 kts 266°
2026-05-04 18:52 48.36674 11.81920 1483 ft 142 kts 265°
2026-05-04 18:52 48.36572 11.80575 1469 ft 117 kts 264°
2026-05-04 18:53 48.36493 11.79570 1462 ft 83 kts 263°
2026-05-04 18:53 48.36426 11.78948 1460 ft 41 kts 242°
2026-05-04 18:53 48.36286 11.78678 1466 ft 31 kts 232°
2026-05-04 18:53 48.36243 11.78590 1460 ft 2 kts 233°
2026-05-04 18:54 48.36191 11.78509 1458 ft 16 kts 218°
2026-05-04 18:54 48.36090 11.78484 1463 ft 14 kts 172°
2026-05-04 18:54 48.36036 11.78591 1460 ft 16 kts 87°
2026-05-04 18:54 48.36049 11.78779 1458 ft 19 kts 84°
2026-05-04 18:55 48.36066 11.78998 1461 ft 23 kts 83°
2026-05-04 18:55 48.36058 11.79317 1465 ft 11 kts 148°
2026-05-04 18:55 48.36031 11.79328 1462 ft 0 kts 172°
2026-05-04 18:59 48.36027 11.79329 1462 ft 1 kts 172°
2026-05-04 19:00 48.36014 11.79331 1462 ft 5 kts 172°
2026-05-04 19:00 48.35944 11.79343 1467 ft 13 kts 173°
2026-05-04 19:00 48.35898 11.79459 1467 ft 16 kts 96°
2026-05-04 19:00 48.35804 11.79531 1467 ft 18 kts 173°
2026-05-04 19:01 48.35673 11.79554 1463 ft 19 kts 173°
2026-05-04 19:01 48.35558 11.79575 1467 ft 13 kts 173°
2026-05-04 19:01 48.35520 11.79628 1465 ft 9 kts 87°
2026-05-04 19:01 48.35528 11.79718 1467 ft 2 kts 83°
2026-05-04 19:02 48.35528 11.79723 1467 ft 3 kts 84°
2026-05-04 19:02 48.35529 11.79731 1460 ft 0 kts 84°